Temp
14 14 15 15 15 15 15 15 15 15 15 15 15 15 15 14 14 15 15 15 15 16 16 16 16 16 16 16 16 16 16 16 16 16 16 16 16 16 16 16 16 16 16 16 16 16 16 16 16 15 15 15 15 16 17 17 17 17 17 17 17 17 17 17 17 17 17 17 17
14 14 14 14 15 15 15 15 15 15 15 15 15 15 15 15 14 15 15 15 15 16 16 16 16 16 16 16 16 16 16 16 16 16 16 16 16 16 16 16 16 16 16 16 16 16 16 16 16 15 15 16 16 16 17 17 17 17 17 17 17 17 16 16 16 16 16 16 16
14 14 14 14 14 14 14 14 14 14 15 15 15 15 15 15 15 15 15 15 15 15 16 16 16 16 16 16 16 16 16 16 16 16 16 16 16 16 16 16 16 16 16 16 16 16 16 16 16 16 16 16 16 16 16 16 16 16 16 16 16 16 16 16 16 16 16 16 16
13 13 14 14 14 14 14 14 14 14 14 14 14 15 15 15 15 15 15 15 15 15 15 15 15 16 16 16 16 16 16 16 16 16 16 16 16 16 16 16 16 16 16 16 16 16 16 16 16 15 15 16 16 16 15 15 15 15 15 15 15 16 16 16 16 15 15 15 15
12 12 13 13 13 14 14 14 14 14 14 14 14 14 14 14 14 14 14 15 15 14 14 14 15 15 16 16 16 15 15 15 15 15 15 15 15 15 15 15 16 16 16 16 16 16 16 16 15 15 15 15 15 15 15 15 15 15 15 15 15 15 15 15 15 15 15 14 14
11 11 12 12 12 13 13 13 14 14 14 14 14 14 14 14 14 14 14 14 14 14 14 14 14 14 15 15 15 14 14 14 14 15 15 15 15 15 15 15 15 15 15 16 16 16 16 15 15 15 15 15 15 15 15 15 15 15 15 15 15 15 15 15 15 15 15 15 15
10 11 11 11 12 12 12 12 13 13 13 13 13 14 14 14 14 14 14 14 14 14 14 13 14 14 14 14 14 14 13 13 13 13 14 15 15 15 15 15 15 15 15 15 15 15 15 15 15 15 15 15 15 14 14 14 14 14 14 14 14 14 14 14 14 14 14 14 14
9 10 10 11 11 11 11 11 12 12 12 12 12 13 13 13 13 14 14 14 14 13 13 14 14 14 14 14 14 13 13 13 13 13 13 14 15 15 15 15 15 15 15 15 15 15 15 15 15 15 15 14 14 14 14 14 14 14 14 13 13 13 14 14 14 14 14 14 14
8 9 9 10 10 11 11 11 11 11 11 11 12 12 12 12 13 13 13 13 13 13 14 14 14 14 14 14 14 13 13 13 13 13 14 14 14 15 14 14 14 14 14 14 14 14 14 14 14 14 14 14 14 14 14 14 14 13 13 13 13 13 13 13 14 14 14 14 14
8 8 8 9 10 10 10 11 11 11 11 11 11 12 12 12 12 12 12 13 13 13 13 13 14 14 14 13 13 13 13 13 13 14 14 14 14 14 13 13 13 13 14 14 14 14 14 14 13 13 13 13 13 13 14 14 14 13 13 13 13 13 13 13 14 14 14 13 13
7 7 8 8 9 9 10 10 10 11 11 11 11 11 12 12 12 12 12 13 13 13 13 13 13 13 13 13 13 13 13 13 13 13 13 13 13 13 13 13 13 13 13 13 14 14 13 13 13 13 13 13 13 13 13 13 14 14 13 13 13 13 13 13 13 14 13 13 13
7 7 7 8 8 9 9 9 9 10 10 10 10 11 11 11 11 11 12 12 12 12 12 13 13 13 13 13 13 13 13 13 13 14 14 14 13 13 13 13 13 13 13 13 13 13 13 13 13 13 13 13 13 13 13 13 13 13 13 13 13 13 13 13 13 13 13 13 13
6 6 7 7 8 8 8 8 8 8 9 9 9 10 10 10 11 11 11 11 11 12 12 12 12 12 12 13 13 13 13 13 13 13 14 14 14 14 14 14 14 14 13 13 13 13 13 13 13 13 13 13 13 13 12 12 12 12 13 13 13 13 13 13 13 13 13 13 13
6 6 6 6 7 7 7 7 7 7 7 8 8 9 9 10 11 11 11 11 11 11 12 12 12 12 12 12 12 13 13 13 13 14 14 14 14 14 14 14 13 13 13 13 13 13 13 13 13 13 13 13 13 13 12 12 12 12 12 13 13 13 13 13 13 13 13 13 13
5 5 5 6 6 6 6 6 6 6 6 6 7 7 8 9 10 10 11 11 11 11 11 11 11 11 11 11 11 12 12 12 13 13 13 13 13 13 13 13 13 13 13 13 13 13 13 13 13 13 13 13 13 13 12 12 12 12 12 13 13 13 13 13 13 13 13 13 13
5 5 5 5 5 5 5 5 5 5 5 5 6 6 7 7 8 9 9 10 10 11 11 11 10 11 11 11 11 11 11 11 12 12 12 12 13 13 13 13 13 13 13 13 13 13 13 13 13 13 13 13 13 13 13 12 12 12 12 13 13 13 13 13 13 13 13 13 13
4 4 4 4 4 4 4 4 4 5 5 5 5 5 6 6 6 7 8 8 9 9 10 10 10 10 10 10 10 10 11 11 11 11 11 11 11 12 12 12 13 13 13 13 13 13 13 13 13 13 13 13 13 13 13 13 13 13 13 13 13 13 13 13 13 13 13 13 13
3 3 4 4 4 4 4 4 4 4 4 5 5 5 5 5 5 6 6 7 8 8 9 9 9 9 9 9 9 9 9 10 10 10 10 10 11 11 11 11 12 12 12 13 13 13 13 13 13 13 13 13 13 13 13 13 13 13 13 13 13 13 13 13 13 13 13 13 13
3 3 3 3 3 3 4 4 4 4 4 4 5 5 5 5 5 6 6 6 7 7 8 8 8 9 9 9 9 9 9 9 9 9 9 10 10 10 11 11 11 11 11 12 12 12 12 12 13 12 12 12 12 13 13 13 13 13 13 13 13 13 13 13 13 13 13 13 13
2 2 2 2 3 3 3 3 4 4 4 5 5 5 5 5 6 6 6 6 6 6 7 7 7 8 8 8 8 8 8 8 8 8 9 9 9 10 10 10 11 11 11 11 11 11 12 12 12 12 12 12 12 12 12 12 12 12 13 13 13 13 13 13 13 13 13 13 13
2 2 2 2 2 2 3 3 3 4 4 5 5 5 5 6 6 6 5 5 6 6 6 6 6 7 7 7 7 7 7 7 8 8 8 8 9 9 9 10 10 10 11 11 11 11 11 11 11 12 12 12 12 12 12 12 12 12 12 12 12 12 12 12 13 13 13 13 12
1 1 2 2 2 2 2 3 3 4 4 5 5 5 5 5 5 5 5 6 6 6 6 6 6 6 6 6 6 6 6 7 7 7 8 8 8 8 9 9 9 10 10 10 10 10 10 10 10 11 11 11 12 12 12 12 12 12 12 12 12 12 12 12 12 12 12 12 12
1 1 1 2 2 2 2 3 3 4 4 4 5 5 5 5 5 5 5 6 6 6 5 5 5 5 4 4 5 5 5 6 6 7 7 7 8 8 8 9 9 9 9 9 9 9 9 9 9 10 10 10 11 11 12 12 12 12 12 12 12 12 12 12 12 12 12 12 12
1 1 1 2 2 2 2 3 3 3 3 3 4 4 4 4 5 5 5 5 5 5 5 4 4 4 4 4 4 4 4 5 5 6 6 6 7 7 7 8 8 8 8 8 8 8 8 8 8 8 9 9 9 10 10 11 12 12 12 12 12 12 12 12 12 12 12 12 12
1 1 1 1 2 2 2 2 2 2 2 3 3 3 3 4 4 4 5 5 5 5 5 4 4 4 4 4 4 4 4 4 5 5 5 6 6 6 6 6 6 6 6 6 7 7 7 7 7 7 8 8 8 9 9 10 10 11 11 12 12 12 12 12 12 12 12 12 12
1 1 1 1 1 1 1 1 1 1 2 2 2 2 2 3 3 3 4 4 4 4 4 4 4 3 3 3 3 4 4 4 4 4 5 5 5 5 5 5 5 5 5 5 6 6 7 7 7 7 7 7 7 8 8 9 9 10 10 11 11 12 12 12 12 12 12 12 12
1 1 1 1 1 1 1 1 1 1 1 1 1 1 1 1 2 2 2 2 3 3 3 3 3 3 2 2 3 3 3 3 3 4 4 4 4 5 5 5 4 4 4 5 5 5 6 6 6 6 6 6 7 7 7 8 8 9 9 10 11 11 12 12 12 12 12 12 12
1 1 1 1 1 1 1 1 1 1 1 1 1 1 1 1 1 1 1 1 1 1 1 1 1 1 1 2 2 3 3 3 3 3 3 4 4 4 4 4 4 4 5 5 5 5 5 5 5 5 6 6 6 6 7 7 8 8 9 9 10 10 11 11 12 12 12 12 12
0 1 1 1 1 1 1 1 1 1 1 1 1 1 1 1 1 1 1 1 1 0 0 0 0 0 1 1 1 2 2 2 2 2 3 3 3 3 4 4 4 4 5 5 5 5 5 5 5 5 5 5 5 6 6 6 7 7 8 8 9 9 10 10 11 11 11 12 12
-0 -0 0 0 0 0 0 1 1 1 1 1 1 1 1 1 1 1 1 0 0 -0 -0 -0 -0 0 0 0 1 1 1 1 1 2 2 2 3 3 3 3 3 4 4 4 4 4 4 5 5 5 5 5 5 5 5 6 6 6 7 7 8 8 9 9 10 10 11 11 11
-1 -1 -1 -1 -1 -1 -1 -0 -0 -0 0 0 0 1 1 1 0 0 0 0 0 -0 -0 -0 -0 0 0 0 0 0 0 0 1 1 1 1 2 2 2 3 3 3 4 4 4 4 4 4 4 4 4 4 4 4 5 5 6 6 6 7 7 8 8 8 9 9 10 10 11
-1 -1 -1 -1 -1 -1 -1 -1 -1 -1 -1 -1 -1 -1 -1 -1 -0 -0 -0 -0 -0 -0 -0 -0 -0 -0 -0 0 0 0 0 0 0 0 0 0 1 1 2 2 3 3 3 3 3 3 4 4 4 4 4 4 4 4 4 5 5 5 6 6 7 7 7 8 8 9 9 9 10
-1 -1 -1 -1 -1 -2 -2 -1 -1 -1 -1 -1 -2 -2 -2 -2 -1 -1 -1 -1 -1 -1 -1 -1 -1 -1 -1 -0 -0 -0 -0 -0 -0 -0 -0 -0 -0 0 1 1 2 2 2 3 3 3 3 3 3 4 4 4 4 4 4 4 4 5 5 6 6 7 7 7 7 8 8 9 9
-1 -1 -1 -1 -1 -1 -1 -1 -1 -1 -1 -1 -2 -2 -2 -2 -2 -2 -2 -2 -2 -2 -2 -1 -1 -1 -1 -1 -1 -1 -1 -0 -0 -0 -0 -0 -0 0 0 1 1 1 2 2 2 3 3 3 3 3 3 3 3 3 3 4 4 5 5 5 6 6 6 7 7 7 8 8 8
-0 -0 -0 -0 -0 -0 -0 -0 -0 -0 -1 -1 -1 -1 -2 -2 -2 -2 -2 -2 -2 -2 -2 -2 -2 -2 -2 -2 -2 -1 -1 -1 -1 -1 -1 -1 -0 -0 -0 0 1 1 1 2 2 2 2 2 3 3 3 3 3 3 3 3 4 4 4 5 5 6 6 6 7 7 7 7 8
-1 -1 -1 -1 -0 -0 -0 -0 -0 -0 -0 -1 -1 -1 -1 -1 -1 -1 -2 -2 -2 -2 -2 -2 -2 -2 -2 -2 -2 -2 -2 -2 -2 -1 -1 -1 -1 -1 -1 -0 1 1 2 1 1 2 2 2 2 2 3 3 2 3 3 3 4 4 4 5 5 5 5 6 6 6 7 7 7
-2 -2 -2 -2 -1 -1 -1 -1 -1 -1 -1 -1 -1 -1 -1 -1 -1 -1 -1 -1 -2 -2 -2 -2 -2 -2 -2 -2 -2 -2 -2 -2 -2 -2 -2 -2 -1 -1 -1 -1 -0 0 1 1 1 1 2 2 2 2 2 2 2 3 3 3 4 4 4 4 5 5 5 5 6 6 6 6 6
-2 -2 -2 -2 -2 -2 -2 -2 -2 -2 -2 -2 -2 -2 -2 -2 -2 -2 -2 -2 -2 -2 -2 -2 -2 -2 -2 -2 -2 -2 -2 -2 -2 -2 -2 -2 -2 -1 -1 -1 -1 -1 -0 0 1 1 1 1 2 2 2 2 2 3 3 3 3 4 4 4 5 5 5 5 5 6 6 6 6
-2 -2 -3 -3 -3 -3 -3 -3 -3 -3 -3 -3 -3 -3 -3 -3 -3 -3 -3 -3 -3 -3 -3 -3 -3 -2 -2 -2 -2 -2 -2 -2 -2 -2 -2 -2 -2 -1 -1 -1 -1 -1 -1 -0 0 1 1 1 2 2 2 2 2 3 3 3 3 4 4 4 4 5 5 5 5 6 6 6 6
-3 -3 -3 -3 -3 -3 -3 -3 -3 -3 -3 -3 -3 -3 -3 -4 -4 -4 -4 -4 -4 -4 -4 -3 -3 -3 -3 -3 -3 -2 -2 -2 -2 -2 -2 -2 -2 -2 -1 -1 -1 -1 -1 -0 -0 0 1 1 2 2 2 2 2 3 3 3 3 3 4 4 4 5 5 5 5 6 6 6 6
-3 -3 -3 -3 -3 -3 -3 -3 -3 -3 -3 -3 -3 -4 -4 -4 -4 -4 -4 -4 -4 -4 -4 -4 -3 -3 -3 -3 -3 -3 -3 -3 -2 -2 -2 -2 -2 -2 -1 -1 -1 -1 -1 -1 -0 0 1 1 1 2 2 2 2 3 3 3 3 3 3 4 4 4 5 5 5 5 6 6 6
Height
711 712 713 713 714 714 715 717 718 719 719 720 721 721 722 723 724 726 727 728 729 730 731 732 732 733 733 734 735 736 737 739 740 741 742 743 744 745 746 748 749 750 751 752 753 754 754 755 756 758 759 760 761 762 763 763 764 765 766 767 768 769 770 770 770 770 771 771 772
711 712 712 713 713 714 715 716 717 718 719 720 720 721 722 723 723 725 726 727 728 729 729 730 731 731 732 733 734 735 737 738 739 740 742 743 744 745 746 747 748 749 750 751 752 753 753 755 756 757 758 759 759 760 761 762 764 765 765 766 766 767 768 768 768 769 770 770 771
711 712 712 713 713 714 714 715 716 717 718 719 719 720 720 721 722 723 724 725 726 727 728 729 729 730 731 732 733 735 736 737 739 740 741 743 744 745 745 746 747 748 749 750 750 751 752 753 754 755 756 757 758 759 760 761 762 764 765 765 765 765 765 765 766 768 769 770 771
712 712 712 713 713 713 714 715 716 717 718 718 718 719 719 719 720 721 722 723 724 725 726 727 728 728 730 731 733 734 736 737 738 740 741 742 743 744 745 746 747 748 748 749 749 750 751 752 753 754 755 756 757 758 759 760 762 763 764 765 764 764 763 764 765 767 769 769 770
713 713 713 713 713 714 715 716 717 717 718 718 718 719 719 719 719 720 720 721 722 723 725 725 726 727 729 731 733 734 736 737 738 739 740 741 743 744 745 746 747 747 748 748 748 748 749 750 752 753 754 755 756 757 758 760 761 762 763 763 763 762 762 763 765 766 767 768 768
715 715 715 715 715 715 716 717 718 718 719 719 719 720 720 720 720 720 720 720 721 723 724 725 725 727 728 731 733 735 736 738 738 739 740 741 742 743 744 745 746 747 747 747 747 748 748 749 750 751 752 753 754 755 757 758 759 760 760 760 761 761 761 762 763 764 765 765 765
717 717 717 717 717 717 718 718 718 719 719 720 720 721 721 721 722 722 721 721 722 723 724 725 725 726 728 730 733 735 737 738 739 739 740 740 741 742 743 744 745 746 746 746 746 746 747 748 749 750 751 752 753 754 755 756 756 757 757 758 758 759 760 760 761 761 762 762 762
719 719 719 719 719 719 719 719 719 719 720 720 721 722 723 723 724 724 724 724 724 724 724 724 725 726 728 731 733 735 737 738 739 739 739 739 740 740 741 742 743 744 745 745 745 745 746 747 748 749 749 750 752 753 753 754 754 755 756 756 757 758 758 758 758 759 759 760 760
721 721 721 721 720 720 720 720 720 720 721 722 723 723 724 724 725 725 725 725 725 725 724 725 726 727 729 731 733 734 735 736 737 737 738 738 739 740 741 742 743 743 743 743 743 744 745 747 748 748 749 749 750 751 752 752 753 753 754 755 756 756 756 756 756 757 757 758 758
723 723 723 722 722 722 721 721 721 721 722 723 724 724 724 724 724 725 725 725 724 724 725 726 728 729 730 731 733 733 734 735 736 736 737 738 739 740 741 743 743 743 743 742 743 743 745 746 747 748 748 748 749 750 750 750 751 751 752 753 754 755 755 754 755 755 755 756 756
725 725 725 724 724 723 723 723 723 724 725 726 726 726 726 726 725 725 725 725 724 725 726 727 729 730 731 732 733 733 734 735 735 736 737 738 739 740 741 742 742 742 742 742 742 742 743 745 746 746 747 747 747 748 748 749 749 750 750 751 752 753 753 753 753 754 754 754 754
728 727 727 726 726 726 726 726 727 728 729 729 729 728 728 727 727 726 725 725 725 726 726 728 729 730 731 732 733 733 734 734 735 736 737 738 738 739 740 740 740 741 741 741 741 741 742 743 744 745 745 744 745 746 747 748 748 749 749 750 750 751 752 752 752 752 752 753 753
730 729 729 728 728 729 729 730 731 731 731 731 730 729 728 727 726 725 725 725 725 726 727 728 728 729 730 732 733 733 734 735 735 736 737 737 738 738 739 739 739 739 740 740 740 741 742 743 743 743 743 744 744 745 746 747 748 748 748 749 749 750 750 750 751 751 751 751 751
732 731 731 732 732 732 733 733 733 733 733 732 731 730 729 727 726 725 725 725 726 727 728 728 729 730 730 731 733 733 734 735 736 736 737 737 738 738 738 738 738 738 739 739 740 740 741 742 743 743 743 743 744 745 746 747 747 747 748 748 748 748 748 748 749 749 749 749 749
734 734 735 735 735 735 736 735 735 735 734 733 732 730 729 728 726 726 726 726 727 728 729 729 730 731 732 732 733 734 735 735 736 737 737 738 738 738 738 738 738 738 738 739 740 740 741 741 742 742 742 743 743 744 745 746 746 746 746 746 746 746 746 746 747 747 747 747 747
737 737 738 738 738 738 737 737 736 735 734 733 732 730 729 728 727 727 727 728 728 729 730 731 732 732 733 733 733 734 734 735 736 736 737 737 738 738 738 738 738 738 738 739 739 740 740 740 740 741 741 741 742 743 744 744 744 744 744 744 744 744 745 745 745 745 745 745 745
739 739 739 739 739 738 738 737 736 735 734 733 731 730 729 729 728 728 728 729 730 730 731 732 733 733 733 733 734 734 734 735 735 735 736 736 737 737 737 738 738 738 738 738 738 739 739 739 740 740 740 741 741 742 742 743 743 743 743 743 743 743 743 743 743 743 743 743 743
740 740 740 739 739 738 738 737 736 735 734 733 732 731 730 730 730 730 730 731 731 732 732 733 733 733 734 734 734 734 735 735 735 735 735 736 736 736 736 737 737 737 737 738 738 738 738 738 739 739 739 740 740 740 741 741 741 741 741 741 741 741 741 741 741 741 741 741 741
741 741 740 740 739 739 738 737 736 735 734 733 733 732 732 732 732 732 732 732 732 733 733 733 734 734 734 734 734 735 735 735 735 735 735 735 735 735 735 735 736 736 736 737 737 737 737 738 738 738 738 738 738 738 739 739 739 739 739 739 739 739 739 739 739 739 739 739 740
742 742 742 741 741 740 739 738 737 736 735 734 734 733 733 733 733 733 733 734 734 734 734 734 734 734 734 734 735 735 735 736 736 736 735 735 735 735 735 735 735 735 736 736 736 737 737 737 737 737 737 737 737 737 737 737 737 737 737 737 737 737 737 737 737 737 738 738 738
744 744 744 743 743 742 741 740 739 738 737 736 735 735 735 735 735 735 735 735 735 735 735 735 735 735 735 735 735 736 736 736 736 736 736 735 735 735 735 735 735 735 735 735 735 735 736 736 736 736 736 735 735 735 735 735 735 735 735 735 735 735 735 735 735 735 735 735 735
747 746 746 745 744 744 743 742 740 739 738 738 737 737 737 736 736 737 737 737 736 736 736 736 736 736 736 736 737 737 737 737 737 736 736 735 735 735 735 734 734 734 734 734 734 734 734 734 735 735 735 735 734 734 734 734 734 733 733 733 733 733 733 733 733 733 733 733 733
749 748 748 747 746 745 744 743 742 741 740 739 739 739 738 738 738 738 738 738 737 737 737 737 737 738 738 738 738 737 737 737 736 736 736 735 735 735 734 734 734 734 734 734 734 733 733 733 733 733 733 733 733 733 733 733 732 732 732 732 732 731 731 731 731 731 731 731 731
751 750 749 748 747 746 745 744 743 742 742 741 741 740 740 740 739 739 739 738 738 738 738 738 738 738 738 738 738 738 737 737 736 736 736 735 735 735 734 734 734 734 734 734 733 733 733 733 733 732 732 732 732 732 732 732 731 731 730 730 730 730 729 729 729 729 729 729 729
753 752 751 750 749 748 747 746 745 744 744 743 743 742 742 741 741 740 740 740 739 739 739 739 739 739 738 738 738 738 737 737 736 736 735 735 735 735 734 734 734 734 734 733 733 733 733 733 733 732 732 731 731 730 730 730 730 729 729 728 728 728 727 727 727 727 727 727 727
754 753 752 751 750 750 748 748 747 747 746 745 745 744 744 743 743 742 742 741 741 740 740 740 739 739 739 738 738 738 737 737 736 736 735 735 735 734 734 734 734 734 733 733 733 733 732 732 732 732 732 731 730 730 729 728 728 728 727 727 726 726 725 725 725 724 724 724 724
754 754 753 752 751 750 750 749 749 748 747 747 746 746 745 745 744 744 743 743 742 742 741 740 740 740 739 739 738 738 738 737 737 736 735 735 735 734 734 734 733 733 733 732 732 732 732 731 731 731 731 730 730 729 728 727 727 726 726 725 725 725 724 723 723 722 722 722 722
755 754 754 753 752 751 751 750 750 749 748 748 748 747 747 746 745 745 744 744 743 743 742 741 741 741 740 740 739 739 738 738 737 736 736 735 735 734 734 733 733 732 732 732 731 731 731 730 730 730 730 730 729 728 727 727 726 725 725 724 724 723 723 722 721 721 720 720 720
757 756 755 754 753 753 752 751 750 750 750 749 749 748 748 747 746 745 745 744 744 743 743 743 742 742 741 741 740 739 739 738 737 737 736 735 735 734 733 733 732 732 731 731 731 730 730 730 729 729 729 729 728 727 727 726 725 724 724 723 722 722 721 721 720 720 719 718 718
759 758 757 756 755 754 754 753 753 752 751 751 750 749 748 747 747 746 745 745 745 744 744 744 743 742 742 741 740 740 739 738 738 737 736 735 735 734 733 732 732 731 730 730 730 730 729 729 728 728 728 728 727 726 725 725 724 723 722 721 721 720 720 719 719 718 718 717 717
760 759 758 757 757 756 755 755 754 753 753 752 751 750 749 748 748 747 747 746 746 745 745 744 743 743 742 741 740 740 739 738 738 737 737 736 735 734 733 732 731 730 730 730 729 729 728 728 727 727 727 726 726 725 724 724 723 722 721 720 719 719 718 718 717 716 716 716 715
760 759 759 758 757 757 756 756 755 754 754 753 752 751 750 750 749 749 748 747 746 745 745 744 743 742 741 740 740 739 739 738 738 737 737 736 735 734 733 731 731 730 729 729 729 728 728 727 727 726 725 725 725 724 723 722 721 720 719 718 718 717 716 716 715 715 715 714 714
760 759 758 758 758 757 756 756 755 755 754 753 752 752 751 750 750 749 748 748 747 746 745 745 744 743 742 741 740 739 738 738 737 737 736 735 734 733 732 731 730 730 729 729 728 728 727 726 726 725 725 724 723 722 721 720 720 719 718 717 716 715 715 714 714 713 713 713 712
759 759 758 758 757 757 756 755 755 754 754 753 752 752 751 750 750 749 748 748 748 747 746 746 745 744 743 742 741 740 739 738 737 736 735 735 734 733 732 731 730 729 729 728 728 727 726 725 725 724 723 723 722 721 720 719 718 717 716 715 714 713 713 712 712 711 711 711 710
759 759 758 758 757 756 756 755 754 754 753 752 752 751 751 750 750 749 749 748 748 747 746 746 745 744 743 743 742 741 740 738 737 736 735 735 733 732 731 730 729 728 728 728 727 726 725 725 724 723 722 721 720 719 718 717 716 715 714 713 712 711 711 710 710 709 709 709 709
761 760 759 759 758 757 756 755 755 754 753 752 752 751 750 750 750 749 749 748 747 746 746 745 745 744 743 743 742 741 740 739 738 737 736 735 734 733 731 730 728 727 727 727 726 725 724 724 723 722 721 720 719 718 717 716 715 713 712 711 710 710 709 708 708 708 707 707 707
763 763 762 761 760 759 758 757 756 755 755 754 753 753 752 751 750 749 749 748 747 745 745 744 744 743 743 742 741 741 740 739 738 737 736 735 734 733 732 730 728 727 726 726 725 724 723 723 722 722 721 720 718 717 716 715 714 712 711 710 709 708 707 707 706 706 705 705 705
765 764 763 762 761 760 760 759 758 757 756 755 755 754 753 752 751 750 749 748 747 746 745 744 743 743 742 741 740 740 739 738 738 737 736 735 734 733 732 730 728 727 726 726 725 724 723 722 721 721 720 719 718 717 715 714 713 711 710 709 708 706 706 705 705 704 704 703 703
765 765 764 763 762 761 760 759 758 758 757 756 755 754 753 753 752 751 750 749 748 747 746 745 744 743 742 741 740 738 738 737 737 736 735 734 733 733 732 730 728 727 726 725 725 724 723 722 721 720 719 719 717 716 715 713 712 710 709 708 707 705 704 704 703 703 702 701 701
766 765 764 763 762 761 760 759 759 758 757 756 755 754 753 752 752 751 750 749 748 747 746 745 744 743 742 741 740 738 737 736 735 735 734 733 732 731 730 729 727 726 725 725 724 723 722 721 720 720 719 718 717 715 714 713 711 710 708 707 706 705 703 702 702 701 700 699 699
766 765 765 764 763 762 761 760 760 759 758 757 756 755 754 753 752 751 750 749 748 747 746 744 743 742 741 740 739 738 736 735 734 734 733 732 731 730 729 728 726 724 723 723 723 722 721 720 720 719 718 717 716 715 714 712 711 709 708 706 705 704 703 701 700 699 699 698 697
Wind_Speed
10 15 18 20 20 18 17 17 17 18 19 22 23 24 24 24 23 23 23 23 23 23 22 20 19 18 18 18 19 21 22 23 24 25 26 26 26 26 26 26 27 28 28 28 28 28 29 29 29 30 31 32 33 33 32 30 28 29 30 31 33 34 35 34 34 33 33 33 33
5 8 12 15 15 15 15 15 16 17 18 21 24 27 29 29 28 26 24 22 20 20 21 21 19 17 17 17 17 18 19 20 22 23 24 25 25 25 25 26 26 27 28 28 27 27 27 27 28 28 29 30 31 31 32 32 32 32 33 34 34 34 33 32 31 32 32 32 33
11 6 5 8 10 12 14 15 16 18 19 22 25 28 30 32 32 30 28 25 22 20 19 20 19 18 17 16 16 16 17 18 19 20 21 22 23 23 24 25 25 26 27 27 27 27 27 27 28 28 28 28 27 27 28 29 31 31 32 33 33 32 30 29 29 30 30 30 30
23 18 12 6 2 7 10 13 14 14 16 17 20 23 26 29 31 32 32 31 28 24 20 18 18 18 17 16 16 16 16 17 18 19 20 20 20 20 21 22 23 24 25 26 26 26 26 26 28 29 29 29 28 26 25 25 25 26 27 28 28 27 27 27 27 28 27 26 26
30 28 26 22 16 9 3 4 6 6 7 8 9 11 13 17 20 24 27 29 29 28 24 19 16 17 17 16 16 16 16 17 17 18 19 19 19 18 18 19 21 22 23 24 24 25 25 26 28 29 30 31 30 29 27 25 23 22 23 23 23 23 24 25 26 27 26 24 23
29 30 31 30 28 24 19 15 12 9 8 6 4 3 3 4 6 9 13 17 22 24 24 20 15 13 14 14 14 16 17 18 17 16 17 17 18 17 17 17 18 20 21 22 23 24 25 26 27 28 29 30 29 28 27 25 24 22 22 21 21 21 23 24 26 26 26 26 25
28 29 29 30 30 29 27 26 25 24 22 19 15 10 6 4 3 3 5 8 12 16 18 16 11 9 9 10 12 16 20 24 24 22 18 16 16 17 17 16 17 17 18 19 20 22 23 24 24 24 25 26 26 26 26 25 24 23 23 23 23 23 23 24 26 26 27 27 28
30 29 29 28 28 28 28 28 28 29 29 28 26 23 18 13 8 5 4 5 7 10 12 10 7 6 7 9 12 16 20 23 24 22 18 16 16 17 17 17 17 17 17 18 19 19 20 21 21 22 22 23 24 25 25 25 26 26 26 26 27 27 27 26 26 26 27 28 29
31 30 29 29 28 28 27 27 27 27 27 28 28 27 26 24 21 18 15 12 9 7 6 5 4 5 8 11 15 18 19 19 18 16 15 15 17 19 20 20 21 21 20 20 20 20 21 21 22 22 22 23 24 25 26 27 29 29 30 30 30 30 29 28 27 28 29 30 31
31 30 30 29 29 28 27 28 27 27 26 26 25 25 24 24 24 24 23 20 18 16 13 9 4 3 7 12 15 17 17 15 14 13 14 15 18 20 22 23 23 23 22 21 20 21 22 23 24 24 24 24 25 26 27 28 30 31 32 32 32 31 30 29 29 29 31 32 33
31 31 30 30 29 28 28 28 27 26 25 24 23 22 22 21 22 22 21 20 19 19 16 13 9 4 1 4 8 9 10 10 10 12 13 16 18 20 22 23 23 22 21 20 19 19 21 23 24 24 24 23 22 21 22 23 25 27 28 29 30 30 29 29 28 28 29 31 33
31 30 30 29 29 28 28 28 27 25 24 23 22 21 21 21 20 20 19 19 20 19 18 16 14 11 8 4 1 2 4 5 6 8 10 12 14 16 17 18 19 19 19 19 18 19 19 19 18 18 17 16 15 14 14 15 17 19 21 22 23 24 25 25 25 25 25 26 28
30 30 30 29 28 28 28 27 26 26 24 23 22 21 20 20 19 18 19 20 20 20 19 17 17 16 14 11 7 3 2 4 5 6 8 9 11 12 14 15 15 16 16 16 15 15 14 13 12 11 11 10 10 10 11 12 13 14 16 18 18 19 20 21 21 22 22 22 23
31 31 30 29 28 28 27 25 25 25 25 24 24 22 21 20 18 18 18 19 19 19 18 17 16 16 16 14 12 9 5 4 5 7 9 10 12 12 13 13 13 12 12 11 11 11 11 11 11 10 10 10 10 11 12 13 14 15 16 17 18 18 19 20 21 21 22 23 22
30 30 30 29 28 27 25 23 23 24 24 25 24 23 22 21 20 18 17 17 17 17 17 16 15 14 14 13 13 12 9 7 4 5 7 10 11 12 11 10 9 8 8 8 8 9 10 11 12 13 13 13 12 13 14 15 16 16 17 17 18 18 19 19 21 22 24 25 23
28 28 28 28 27 26 24 23 22 22 23 24 24 24 24 23 22 20 19 18 16 16 15 15 15 14 13 12 12 11 11 10 9 7 6 5 6 8 8 8 8 7 7 7 9 10 12 13 15 15 15 15 15 15 16 16 17 17 18 18 18 18 18 18 19 21 23 24 22
27 27 27 26 26 25 24 23 22 23 23 24 24 24 24 24 24 23 21 20 18 16 16 15 15 14 14 13 13 12 11 11 11 11 11 10 9 8 8 8 9 9 10 10 12 13 14 15 16 16 17 17 17 17 17 18 18 18 18 18 18 18 17 17 17 19 21 22 22
27 27 27 27 26 26 25 25 24 24 24 25 25 25 24 24 24 24 23 22 20 18 17 16 15 15 15 15 14 14 13 12 12 11 11 10 10 9 9 9 9 10 11 12 14 15 16 16 17 17 18 18 19 19 19 19 19 20 19 19 18 18 17 17 17 18 19 21 22
28 28 28 27 27 26 26 26 25 25 25 25 25 24 24 24 24 24 24 23 22 20 19 18 16 15 15 15 15 14 14 14 13 13 12 11 10 10 9 9 9 9 10 11 12 14 16 17 18 18 19 20 20 21 21 21 21 21 21 20 20 19 19 18 18 18 18 20 21
28 28 27 27 27 27 26 26 26 25 25 24 24 24 24 24 24 24 25 24 23 21 20 20 19 18 17 16 15 15 15 15 14 14 13 12 12 11 11 11 10 10 9 9 10 12 13 15 17 18 20 21 21 22 23 23 23 23 23 23 22 22 21 21 21 20 20 20 20
28 27 27 27 27 27 27 26 26 25 25 24 24 24 24 23 23 23 23 23 22 21 21 22 21 21 20 18 18 17 16 16 15 14 14 13 13 12 12 12 11 11 11 10 10 11 12 14 15 17 18 20 22 23 24 24 24 25 25 25 25 24 24 23 23 23 23 23 23
27 27 27 28 28 27 27 27 26 26 26 25 24 24 23 23 23 22 21 21 20 21 22 22 22 21 20 20 19 18 18 17 16 16 15 15 14 13 12 12 12 11 11 10 10 11 11 12 13 14 15 17 19 22 23 24 25 26 26 27 27 26 26 25 25 25 25 25 25
27 28 28 28 28 28 27 28 27 27 27 27 26 25 24 23 22 21 20 20 20 20 21 21 21 20 20 19 19 19 19 19 19 18 18 17 16 15 14 13 12 11 10 10 11 11 12 12 13 13 13 14 16 18 20 23 24 25 25 26 26 26 26 26 26 26 26 26 26
27 28 28 28 28 28 28 28 28 29 29 28 27 26 25 24 23 22 21 21 20 20 20 20 20 20 19 19 19 19 20 21 22 21 20 19 19 18 17 16 15 13 12 12 12 12 12 14 15 15 15 15 15 15 17 18 20 22 23 23 24 24 25 25 26 26 26 26 26
27 27 28 28 28 28 28 29 29 29 28 28 27 27 26 25 24 24 23 22 21 21 20 20 20 20 19 20 20 20 21 22 23 24 23 22 21 20 20 19 17 16 15 15 14 14 13 14 15 16 17 18 17 17 17 17 18 19 20 22 23 24 24 25 25 25 25 25 25
26 27 27 27 28 28 28 28 28 27 27 27 27 27 26 26 25 24 24 23 23 22 21 21 20 20 20 20 21 21 22 22 23 24 24 24 23 22 21 20 18 17 17 17 18 17 16 15 15 15 17 19 19 19 19 19 18 18 19 20 22 23 24 25 25 25 25 24 24
27 27 27 27 27 27 27 27 27 27 26 26 26 26 26 25 25 25 25 24 23 22 21 21 21 20 20 20 21 22 22 22 22 23 23 24 24 24 23 22 20 18 19 19 20 19 18 17 16 16 16 18 19 20 21 21 20 20 19 19 20 21 23 24 25 25 25 25 24
28 27 27 27 27 27 27 27 27 26 26 26 26 25 25 25 25 25 25 24 23 22 22 21 21 20 20 20 21 22 22 22 22 22 23 23 24 24 24 23 22 21 21 21 21 20 19 19 18 17 17 18 19 20 21 21 22 21 21 20 20 20 21 22 23 24 25 25 25
27 27 27 27 27 27 27 27 27 26 26 25 25 25 25 25 26 25 25 24 23 22 21 21 20 20 20 20 20 21 21 21 21 21 22 23 23 23 24 24 24 24 23 22 22 21 21 20 20 19 18 18 19 20 21 21 22 22 22 21 21 20 20 21 21 22 23 24 24
26 26 26 26 26 26 26 26 26 25 25 25 25 25 25 26 26 26 25 24 23 21 20 20 19 19 19 19 19 20 20 20 20 21 21 22 22 23 24 24 25 25 24 23 23 22 22 21 21 21 20 20 20 21 21 22 22 22 22 22 22 22 22 22 22 22 23 23 24
24 25 25 25 25 25 25 25 24 24 24 24 24 25 25 25 25 25 24 23 22 21 21 21 21 21 20 20 20 19 20 20 20 20 20 21 21 23 24 24 25 25 24 23 23 23 23 23 23 22 21 21 21 21 22 22 23 23 23 23 23 24 23 23 22 22 23 23 24
24 24 24 24 24 24 24 24 24 23 23 23 23 24 24 24 24 24 23 22 22 21 22 22 22 22 22 22 22 22 21 21 20 20 20 20 21 23 24 24 24 24 24 23 23 23 23 23 24 23 23 22 22 22 23 23 23 23 24 24 24 24 24 24 23 23 23 23 23
26 26 25 25 25 24 24 24 24 23 23 22 23 23 23 23 23 23 23 22 20 20 20 21 21 22 22 22 23 23 23 22 21 21 21 22 23 23 24 24 24 23 23 23 23 23 24 24 24 24 24 23 23 24 23 23 23 23 24 24 25 25 25 24 24 24 23 23 23
27 27 27 27 26 26 25 25 25 25 24 24 24 24 24 24 24 23 23 21 20 19 18 19 19 19 19 20 20 21 22 22 22 23 23 24 24 24 25 25 24 23 23 23 23 23 24 24 24 24 24 24 25 24 24 24 23 24 24 25 25 26 26 25 25 25 24 24 23
27 27 27 27 27 27 27 27 26 26 26 26 26 26 26 25 25 24 23 22 21 20 20 20 19 18 18 18 18 18 19 20 22 23 23 24 24 24 25 25 25 25 24 24 24 23 24 24 24 24 25 25 25 25 24 24 23 23 24 24 25 25 25 25 25 25 25 24 24
24 25 25 25 26 26 26 26 26 27 27 28 28 28 28 27 26 26 25 24 24 24 23 22 21 20 19 18 17 17 17 18 20 21 21 21 22 23 24 25 26 26 25 25 24 24 24 24 24 24 24 25 25 24 24 24 23 23 23 23 24 24 25 25 25 25 25 25 24
20 21 22 22 23 23 24 24 24 25 25 26 26 27 27 27 26 26 26 26 26 26 26 25 24 23 22 21 20 19 18 18 18 19 20 20 20 20 22 24 26 26 26 25 25 24 24 24 24 24 24 24 24 24 24 24 23 23 23 23 24 24 24 24 25 25 25 25 24
17 18 18 19 20 20 20 21 21 22 22 23 23 24 24 24 25 25 25 24 25 25 26 25 25 24 24 24 23 22 22 20 19 19 19 19 19 20 21 23 24 25 25 24 24 24 24 24 24 23 23 24 24 24 23 23 22 22 23 23 24 24 24 24 24 25 25 26 26
16 16 16 17 17 18 18 18 18 19 20 21 21 22 23 23 23 23 22 22 22 23 23 23 23 23 24 24 24 25 25 23 22 21 20 20 20 20 21 22 23 24 24 23 22 22 22 23 23 23 23 23 24 23 23 22 22 22 22 23 23 24 25 25 25 25 26 26 26
16 16 16 17 17 17 17 17 18 18 19 20 21 21 21 21 21 21 21 21 21 21 20 21 21 21 22 22 22 23 24 25 24 22 22 22 22 22 22 22 23 23 23 22 21 21 21 21 22 22 22 22 23 23 22 21 22 22 22 22 22 23 23 24 25 25 26 26 27
16 16 16 16 16 16 17 17 17 18 19 19 20 20 20 21 20 20 20 20 20 19 19 19 20 21 21 21 21 22 22 23 23 22 22 23 23 23 22 22 23 24 24 23 21 21 21 21 21 21 21 22 22 22 22 21 21 21 22 22 22 21 22 23 24 25 25 26 26
Wind_Direction
218 222 222 221 218 216 217 220 222 220 218 219 222 225 227 227 226 226 225 225 224 223 221 218 216 215 214 214 215 215 216 216 215 215 214 215 215 216 216 217 217 217 218 220 220 220 220 219 218 218 220 222 226 230 235 239 243 245 245 242 239 236 235 235 235 236 236 237 237
142 193 209 215 217 219 222 226 230 231 229 226 226 226 227 228 228 227 225 220 215 214 216 216 211 207 205 206 209 212 215 216 216 217 217 218 219 219 220 219 219 219 219 219 218 217 217 217 217 218 221 224 227 230 233 236 239 241 242 242 239 237 235 235 237 240 241 241 241
81 112 168 203 217 224 229 232 236 237 236 234 231 228 227 226 227 228 227 222 214 206 205 209 209 205 201 202 204 207 210 212 213 214 215 217 219 220 221 222 222 222 222 221 220 220 220 220 221 223 226 229 232 233 233 234 235 236 237 238 238 237 237 239 243 246 247 247 245
64 69 74 83 159 217 225 229 230 231 230 230 229 227 226 225 226 227 228 227 222 214 204 197 194 195 197 198 199 199 200 201 204 206 208 211 214 217 220 222 223 223 223 223 222 223 223 223 224 225 228 231 233 233 234 234 235 235 234 235 235 236 238 241 244 246 245 245 244
56 60 63 65 68 77 117 193 205 206 207 210 213 216 219 222 223 225 227 227 224 221 216 208 192 186 190 195 196 196 194 191 189 192 197 202 206 210 215 218 221 222 223 223 223 222 222 222 224 226 228 230 232 233 234 234 233 232 231 232 233 234 236 236 238 238 238 238 240
49 54 59 62 63 64 66 69 75 79 82 88 102 129 161 183 199 210 217 221 220 219 218 215 204 192 192 202 211 216 218 215 209 200 193 192 197 202 207 211 216 218 220 220 220 220 220 220 222 225 228 230 232 233 232 231 230 229 229 231 233 234 233 231 232 234 237 240 243
47 50 54 57 59 60 60 63 65 66 65 62 59 62 72 93 119 149 174 190 200 205 206 204 195 190 198 214 226 233 235 234 233 232 226 214 203 202 207 212 216 218 219 219 218 218 218 219 220 223 227 230 232 234 234 234 235 236 238 240 242 242 240 238 238 240 244 247 250
48 49 52 55 57 57 57 59 61 61 60 58 56 56 57 60 66 78 104 138 170 184 187 180 167 172 196 214 224 230 233 235 235 237 238 232 226 224 226 229 232 234 233 231 229 228 228 228 229 230 233 236 239 241 243 245 246 247 248 249 250 251 250 249 249 250 252 253 254
46 47 50 54 55 55 55 56 57 57 55 54 53 53 53 53 51 48 47 51 65 87 106 114 138 184 206 215 221 226 229 231 231 233 235 238 241 243 245 246 247 248 248 247 246 246 246 245 243 242 244 246 248 251 254 256 255 254 252 251 252 253 254 255 257 257 256 256 256
42 43 45 48 51 52 54 54 54 54 52 50 50 51 51 49 47 45 43 44 47 51 54 57 72 175 209 216 220 225 228 230 230 232 236 241 244 245 245 244 246 248 251 254 256 256 255 251 248 248 250 252 255 257 260 261 260 257 254 252 252 253 256 259 260 259 256 254 255
42 42 43 44 47 49 51 52 52 51 50 49 49 48 48 47 45 44 45 47 48 47 45 44 45 49 137 206 216 223 229 235 238 240 243 245 244 242 242 241 243 246 250 254 260 261 257 252 247 246 247 250 253 257 260 260 259 256 253 251 252 254 256 258 259 256 253 251 252
42 42 42 44 46 48 49 50 50 49 49 48 47 46 45 43 42 42 42 44 46 45 45 43 39 34 30 24 339 245 243 246 249 251 252 253 251 249 249 249 251 253 255 259 261 260 257 251 244 241 241 244 247 250 253 256 256 253 251 249 250 252 254 256 257 256 254 252 252
43 42 42 43 45 46 47 47 46 46 45 45 44 43 42 41 39 38 37 38 39 40 41 42 41 37 32 25 16 353 287 256 250 251 254 257 258 258 258 260 261 261 262 262 258 254 250 247 244 242 241 242 243 243 243 246 248 249 249 249 251 252 254 257 259 260 259 257 256
43 42 41 41 42 43 43 41 41 41 41 41 41 40 40 40 38 36 34 33 33 32 33 35 36 36 35 32 26 16 353 300 261 249 246 248 250 252 255 258 261 263 261 255 250 245 243 246 249 251 251 250 248 244 241 240 242 244 247 251 254 255 257 259 262 263 262 260 260
42 40 40 39 40 39 38 37 36 35 36 37 37 37 38 39 38 37 35 32 29 26 25 27 28 30 32 34 34 30 22 4 323 276 256 249 248 249 250 251 254 257 258 253 250 250 251 254 257 258 257 255 253 248 243 240 239 241 244 248 252 255 258 262 264 265 263 262 262
40 38 37 37 36 36 35 34 32 32 33 34 35 36 36 37 37 37 36 34 29 24 21 21 21 21 22 26 31 33 33 29 21 9 346 313 288 276 268 262 256 254 257 263 268 270 271 271 270 268 266 262 258 252 247 243 240 240 241 244 247 252 257 262 265 267 266 265 263
38 36 35 34 34 33 32 32 31 31 31 33 34 35 35 35 36 37 37 36 32 28 24 20 16 14 14 15 17 20 22 23 21 19 14 8 356 339 319 301 285 275 271 273 278 281 283 283 282 279 275 269 263 258 252 248 245 243 243 244 247 250 255 260 264 268 268 267 264
36 35 33 33 32 31 31 31 30 31 31 32 34 34 35 35 35 36 37 37 35 32 29 25 19 15 13 11 10 9 10 10 8 6 5 3 0 355 347 336 321 308 297 290 287 285 285 285 285 283 279 274 269 263 258 255 252 250 250 251 252 255 257 260 263 266 267 267 265
35 33 32 31 31 30 30 30 31 31 31 32 33 34 35 35 35 35 36 36 35 34 32 30 26 22 18 15 11 8 5 4 1 357 352 348 344 340 337 334 330 326 321 313 303 295 290 287 284 282 279 275 271 267 264 261 259 258 257 257 258 260 261 261 261 262 263 264 264
34 33 32 31 31 30 30 31 31 31 32 32 33 34 34 34 34 34 34 33 33 33 33 32 31 28 25 20 17 13 9 5 1 356 350 344 338 333 326 320 316 315 317 320 321 317 309 300 293 286 280 274 270 267 265 263 262 261 260 260 260 261 261 261 261 260 260 259 259
34 33 32 32 31 31 31 32 32 32 33 33 33 33 32 32 31 31 31 30 30 31 31 31 30 28 26 23 20 18 14 9 6 1 355 349 343 337 329 321 315 310 309 314 327 335 334 326 314 301 289 279 271 266 263 261 260 259 259 259 259 260 260 261 260 259 258 256 254
34 33 33 32 32 32 33 33 33 33 33 33 32 31 30 29 28 28 27 27 28 28 28 28 27 25 24 22 20 17 15 12 10 7 3 358 353 347 339 331 323 316 314 319 328 335 337 336 331 322 310 296 284 274 267 262 259 257 256 257 258 258 260 260 260 259 258 256 254
34 34 33 33 33 33 33 34 34 34 33 32 31 30 28 26 25 24 23 23 24 25 25 24 22 21 20 19 16 14 12 10 9 8 7 4 0 356 351 345 340 335 333 331 328 326 325 326 327 327 325 318 307 294 282 271 263 259 257 257 258 259 260 261 261 260 259 258 257
34 34 34 33 34 34 34 33 33 33 32 31 29 28 27 25 23 21 20 20 20 21 20 19 17 16 15 13 12 10 8 6 5 4 4 3 2 360 357 355 352 350 346 338 330 324 321 321 322 322 322 321 318 311 301 290 278 269 263 262 262 263 263 263 262 261 260 260 259
34 34 34 34 33 33 33 33 32 31 30 28 27 26 25 23 21 20 19 18 17 17 16 15 13 11 9 8 6 5 3 2 0 359 358 358 358 358 357 356 355 351 346 340 336 331 327 324 323 322 321 319 316 312 309 304 298 289 280 274 270 268 267 266 264 262 261 260 261
33 33 33 33 32 32 32 31 30 29 28 26 25 24 23 21 19 18 17 16 15 14 13 12 10 8 5 3 1 1 360 358 356 354 353 352 352 352 352 352 351 348 345 343 341 339 337 332 327 324 322 320 317 314 310 306 304 301 295 287 279 273 270 267 266 265 265 264 264
30 30 30 30 30 30 29 29 28 27 26 25 23 22 20 18 17 16 15 14 12 11 10 9 7 5 2 360 358 358 357 355 352 350 348 347 346 345 345 344 343 342 341 341 342 341 340 337 333 329 324 320 317 314 311 307 304 302 300 296 289 281 274 270 268 268 268 268 269
28 28 27 27 27 27 26 26 25 24 24 23 21 19 18 17 16 15 13 11 9 8 7 6 4 2 360 357 355 354 353 351 349 347 345 343 342 340 339 337 335 334 334 336 338 338 338 337 335 332 327 322 317 313 310 307 304 301 300 298 295 290 284 278 274 272 271 271 272
27 26 26 26 25 25 24 23 22 22 21 20 18 17 16 16 15 14 11 9 7 6 4 1 359 357 356 353 352 350 349 348 346 344 342 340 338 336 334 332 330 329 329 331 332 333 333 333 333 331 328 324 319 314 310 307 303 300 298 295 294 292 289 286 282 278 275 273 273
27 26 26 25 25 24 23 22 21 20 18 17 16 15 15 14 13 12 10 7 4 2 359 356 354 353 352 350 348 347 345 344 343 342 341 338 335 333 330 328 327 326 327 328 328 328 328 328 328 328 327 325 321 316 311 307 303 300 297 293 291 290 289 288 286 283 280 277 275
26 26 25 25 24 23 22 21 20 19 18 16 15 14 13 13 11 10 8 5 2 358 356 354 352 350 348 347 345 344 342 341 340 340 339 336 333 329 327 326 325 325 326 327 326 325 324 324 324 324 325 325 322 318 313 308 304 300 297 293 291 290 289 288 287 285 283 281 278
23 23 23 23 22 21 20 19 18 18 17 16 15 14 12 11 10 9 7 4 0 357 354 353 350 348 346 344 343 341 339 339 337 336 335 332 329 327 326 325 325 325 326 326 325 323 322 321 320 321 321 322 321 318 315 311 307 302 298 294 291 290 289 289 288 286 284 282 280
19 19 19 19 18 17 16 15 15 15 14 14 13 12 10 8 7 6 5 3 359 355 352 350 348 345 343 341 339 338 337 336 334 332 331 330 328 326 325 324 324 324 325 324 323 321 320 319 318 318 319 319 319 317 315 314 310 306 300 296 292 289 288 288 287 286 285 282 280
15 15 14 14 13 13 12 12 11 11 11 10 10 9 7 5 3 2 1 359 355 352 349 347 345 342 339 337 336 334 333 332 331 330 329 328 327 326 324 322 322 323 323 322 321 320 319 318 317 317 317 318 317 316 315 314 312 308 303 298 294 290 288 286 286 286 285 284 282
13 12 11 11 10 10 9 9 9 9 8 7 6 5 3 2 0 359 357 354 351 348 346 344 343 340 338 335 333 331 329 328 327 327 327 326 326 324 322 321 320 321 322 322 321 319 318 317 317 317 317 317 316 315 314 314 311 308 304 301 298 294 291 288 286 285 285 284 284
13 11 10 9 9 8 8 8 7 7 7 6 4 2 -0 359 358 357 355 352 349 347 345 344 343 341 339 336 333 330 327 324 323 322 322 322 321 320 319 318 318 320 322 322 321 320 318 317 316 316 316 315 314 314 313 312 309 306 304 301 298 296 294 292 289 287 286 285 284
14 12 10 8 8 7 7 7 6 5 4 3 1 359 357 356 355 354 353 351 348 345 344 343 342 340 338 336 332 328 325 323 321 319 318 317 316 315 314 313 314 317 319 321 321 319 318 316 315 315 314 314 313 312 311 310 308 305 303 301 298 296 294 293 291 289 287 286 285
15 12 10 7 6 4 4 3 3 1 359 358 356 355 354 353 351 351 351 349 346 343 341 340 339 338 336 334 330 327 325 324 322 319 317 315 313 312 310 309 309 311 314 317 317 317 316 314 313 313 313 312 311 310 309 308 306 304 302 300 298 297 295 294 292 290 289 287 286
15 12 9 6 3 1 0 359 358 356 354 351 350 349 349 348 347 345 345 344 342 340 337 336 334 334 332 330 328 326 325 325 324 321 318 316 314 312 310 307 306 307 309 311 311 312 311 311 311 311 311 311 309 308 307 305 303 302 301 299 298 298 296 295 293 291 290 289 288
15 12 9 6 3 0 359 357 355 353 351 349 347 346 345 344 342 340 340 340 339 337 333 330 329 328 327 326 324 322 322 323 323 321 319 317 316 315 312 309 307 307 308 308 308 308 308 308 309 309 309 308 307 305 304 303 301 300 299 298 298 297 296 295 294 292 290 289 289
15 12 10 7 4 1 358 356 354 352 350 348 347 345 344 342 340 339 339 338 337 335 332 328 326 325 324 322 320 319 318 318 317 318 318 318 317 316 314 311 309 309 310 310 309 309 308 308 308 307 307 305 304 303 301 300 299 298 297 297 298 297 296 296 295 293 291 289 289